Miscellaneous Local Product
Issued by NWS North Platte, NE

Home | Current Version | Previous Version | Graphics & Text | Print | Product List | Glossary On
Versions: 1 2 3 4 5 6 7 8 9 10 11 12 13 14 15 16 17 18 19 20 21 22 23 24 25 26 27 28 29 30 31 32 33 34 35 36 37 38 39 40 41 42 43 44 45 46 47 48 49 50
000
AXUS43 KLBF 260910
MISLBF


WESTERN AND NORTH CENTRAL NEBRASKA HOURLY WEATHER ROUNDUP
NATIONAL WEATHER SERVICE NORTH PLATTE NE
400 AM CDT THU MAY 26 2016

NOTE: "FAIR" INDICATES FEW OR NO CLOUDS BELOW 12,000 FEET WITH NO
SIGNIFICANT WEATHER AND/OR OBSTRUCTIONS TO VISIBILITY.

NOTE: STATIONS NOT REPORTING VARIABLES SUCH AS SKY/WEATHER OR
PRESSURE ARE PROVIDED BY RAWS AND APRS NETWORKS AND ARE NOT UNDER
NATIONAL WEATHER SERVICE QUALITY CONTROL.

...OBSERVATIONS IN AND NEAR THE EASTERN PANHANDLE OF NEBRASKA...

CITY           SKY/WX    TMP DP  RH WIND       PRES   REMARKS
PINE RIDGE     CLEAR     40  37  89 NE5       29.89F
CHADRON        CLEAR     41  38  89 SW5       29.90S
ALLIANCE       CLEAR     40  39  97 W6        29.93R
SIDNEY         CLOUDY    48  43  82 NW9       29.94F
CRESCENT LAKE    N/A     51  42  72 SW6         N/A
BIG SPRINGS      N/A     52  50  93 SW7         N/A
$$

...OBSERVATIONS IN NORTHERN NEBRASKA AND FAR SOUTHERN SOUTH DAKOTA...

CITY           SKY/WX    TMP DP  RH WIND       PRES   REMARKS
WINNER         FAIR      53  48  83 S3        29.86F
VALENTINE      CLOUDY    49  46  90 SW6       29.89R
THEDFORD       MOCLDY    54  48  81 NW5       29.89S
AINSWORTH      MOCLDY    51  48  89 CALM      29.88F
O`NEILL        CLEAR     56  50  80 W5        29.88S
ORD            PTCLDY    54  51  90 NW3       29.84F
BROKEN BOW     CLEAR     52  50  93 NE5       29.85R
BUTTE            N/A     56  51  85 CALM        N/A
CHAMBERS         N/A     54  50  87 CALM        N/A
EWING            N/A     58  53  82 W3          N/A
$$

...OBSERVATIONS IN SOUTHWEST NEBRASKA AND FAR NORTHEAST COLORADO...

CITY           SKY/WX    TMP DP  RH WIND       PRES   REMARKS
IMPERIAL       CLEAR     52  48  86 NW5G16    29.92S
OGALLALA       CLOUDY    55  49  82 E3        29.88F
NORTH PLATTE   CLOUDY    50  48  93 NW5       29.88R
MCCOOK         CLOUDY    51  49  92 NW6       29.89S
LEXINGTON      CLEAR     53  50  89 SW3       29.89R
PAXTON           N/A     53  50  91 CALM        N/A
STAPLETON        N/A     51  48  90 CALM        N/A
GOTHENBURG       N/A     56  49  76 CALM        N/A
CALLAWAY         N/A     53  50  89 N6          N/A
$$

...OBSERVATIONS IN CENTRAL LINCOLN COUNTY AREA...

CITY           SKY/WX    TMP DP  RH WIND       PRES   REMARKS
N.P. AIRPORT   CLOUDY    50  48  93 NW5       29.88R
N.P. DOWNTOWN    N/A     52  51  95 CALM        N/A
N.P. SOUTHEAST   N/A     54  51  90 CALM        N/A
N.P. HILLCREST   N/A     52  48  87 CALM        N/A
$$

...SOME OBSERVATIONS FROM AROUND THE REGION...

CITY           SKY/WX    TMP DP  RH WIND       PRES   REMARKS
DENVER         PTCLDY    46  41  82 SW5       30.02S
LARAMIE        CLEAR     35  29  78 S8        30.06F WCI  29
CHEYENNE       CLEAR     40  33  76 W9        30.02F WCI  34
SCOTTSBLUFF    CLEAR     44  40  85 NW5       29.94S
RAPID CITY     CLEAR     44  42  93 N3        29.88F
BISMARCK       CLEAR     47  45  93 SW5       29.80F
PIERRE         CLEAR     49  46  90 W6        29.83F
SIOUX FALLS    CLOUDY    60  55  83 NW9       29.79F
OMAHA          PTCLDY    62  57  83 E7        29.86F
GRAND ISLAND   CLEAR     56  52  86 CALM      29.85S
KANSAS CITY    RAIN      66  60  81 W12G28    29.91R
WICHITA        CLOUDY    74  69  85 S5        29.82S
OKLAHOMA CITY  CLOUDY    77  73  87 S15       29.87R
DALLAS         MOCLDY    78  72  81 S12       29.91S
AMARILLO       CLEAR     63  32  31 S8        29.89S
DODGE CITY     MOCLDY    66  66 100 E10       29.81F FOG
HAYS           PTCLDY    52  50  93 SE5       29.84F
GOODLAND       MOCLDY    49  46  90 NW8       29.92S
$$




USA.gov is the U.S. government's official web portal to all federal, state and local government web resources and services.